Lexington Weather

Lexington, Massachusetts, USA

72°F
9/22/2021 2:35pm 
  • Lexington Conditions: Overcast
  • Temperature: 71.8°F / 22.1°CColder 2.1°F than last hour.
  • Dew Point: 69.1°FIncreased 0.9°Fsince last hour.
  • Relative Humidity: 91%Increased 9.0% since last hour.
  • Wind: Wind from SW SW 2 mph, 10-min avg: 3 mph, gust: 11 mph
  • Barometer: 30.08 inFalling 0.02  inHg/hr Falling Slowly
  • Visibility: 10 miles
  • Rain Today: 0.00 in
  •   

Regional Weather Roundup
for Boston / Norton, MA

        
000
ASUS41 KBOX 191704
RWRBOX

REGIONAL WEATHER ROUNDUP
NATIONAL WEATHER SERVICE BOSTON/NORTON MA
100 PM EDT SUN SEP 19 2021

NOTE:  "FAIR" INDICATES FEW OR NO CLOUDS BELOW 12,000 FEET WITH NO 
SIGNIFICANT WEATHER AND/OR OBSTRUCTIONS TO VISIBILITY.

MAZALL-191800-
EASTERN MASSACHUSETTS
  
CITY           SKY/WX    TMP DP  RH WIND       PRES   REMARKS
BOSTON         NOT AVBL                                               
BEVERLY        SUNNY     71  54  54 NE8       30.15F                  
LAWRENCE       SUNNY     71  51  49 N9        30.18S                  
BEDFORD        MOSUNNY   72  53  51 N7        30.15F                  
BLUE HILL      NOT AVBL                                               
NORWOOD        SUNNY     72  52  49 NE12      30.16S                  
MARSHFIELD     SUNNY     68  54  60 N9G16     30.16S                  
PLYMOUTH       SUNNY     69  51  52 N13       30.15S                  
TAUNTON        SUNNY     71  50  47 N8G18     30.15S                  
NEW BEDFORD    SUNNY     72  51  47 NE12      30.14S                  
$$

MAZALL-191800-
CAPE COD AND THE ISLANDS
  
CITY           SKY/WX    TMP DP  RH WIND       PRES   REMARKS
FALMOUTH       SUNNY     68  55  64 NE14G29   30.14S                  
HYANNIS        SUNNY     69  57  65 N15G23    30.11S                  
CHATHAM        SUNNY     70  50  49 N12G21    30.12S                  
PROVINCETOWN   SUNNY     67  56  67 N18       30.15S                  
NANTUCKET      SUNNY     72  53  51 N21       30.11S                  
MARTHAS VNYRD  SUNNY     71  52  50 N17G25    30.13R                  
$$
 
MAZALL-191800-
CENTRAL AND WESTERN MASSACHUSETTS
  
CITY           SKY/WX    TMP DP  RH WIND       PRES   REMARKS
WORCESTER      MOSUNNY   68  50  52 NE8       30.19S                  
FITCHBURG      SUNNY     71  47  42 VRB6      30.18S                  
ORANGE         SUNNY     72  47  40 N12       30.18F                  
SPRINGFIELD    MOSUNNY   72  50  44 N10       30.17S                  
WESTFIELD      SUNNY     72  48  42 NE10      30.18S                  
NORTH ADAMS    SUNNY     69  54  58 NW7       30.19F                  
PITTSFIELD     SUNNY     69  48  47 NW7       30.19F                  
$$
 
RIZALL-191800-
RHODE ISLAND
  
CITY           SKY/WX    TMP DP  RH WIND       PRES   REMARKS
PROVIDENCE     MOSUNNY   73  53  49 NE14      30.16S                  
NEWPORT        SUNNY     71  53  52 N12       30.15R                  
BLOCK ISLAND   SUNNY     69  55  60 NE14G20   30.16R                  
SMITHFIELD     PTSUNNY   70  54  56 N8        30.17S                  
WESTERLY       MOSUNNY   71  54  54 N7        30.15R                  
$$
 
CTZALL-191800-
CONNECTICUT
  
CITY           SKY/WX    TMP DP  RH WIND       PRES   REMARKS
BRADLEY INTL   MOSUNNY   72  50  45 N12G17    30.18S                  
HARTFORD       MOSUNNY   73  51  46 N12       30.17S                  
BRIDGEPORT     SUNNY     75  47  36 NE10      30.17S                  
DANBURY        SUNNY     74  49  41 VRB6      30.19S                  
GROTON         SUNNY     75  55  49 N9        30.14S                  
NEW HAVEN      MOSUNNY   76  52  43 N13       30.16S                  
CHESTER        FAIR      73  54  49 N9        30.17S                  
MERIDEN        SUNNY     73  49  42 NE8G16    30.17S                  
WILLIMANTIC    MOSUNNY   72  51  47 NE5       30.17R                  
OXFORD         SUNNY     70  49  47 NE12      30.19S                  
$$

MEZ002-015-021-024-NHZ003-005-008-011-012-014-VTZ005-008-191800-
NORTHERN NEW ENGLAND
  
CITY           SKY/WX    TMP DP  RH WIND       PRES   REMARKS
PORTLAND ME    SUNNY     68  50  52 N10       30.16S                  
BANGOR ME      MOSUNNY   68  46  45 N12       30.13F                  
CONCORD NH     MOSUNNY   72  51  47 W9        30.17S                  
MANCHESTER NH  MOSUNNY   72  48  42 VRB3      30.15F                  
NASHUA NH      SUNNY     70  52  52 N8        30.17F                  
PORTSMOUTH NH  MOSUNNY   72  44  35 N10       30.17S                  
JAFFREY NH     SUNNY     70  51  51 VRB6      30.19F                  
KEENE NH       SUNNY     70  49  47 N10       30.18F                  
BURLINGTON VT  MOSUNNY   65  48  54 NW9       30.25F                  
MT. WASHINGTON PTSUNNY   46  28  49 N15G21      N/A                   
$$

NYZ052-076-191800-
EASTERN NEW YORK
  
CITY           SKY/WX    TMP DP  RH WIND       PRES   REMARKS
ALBANY         MOSUNNY   65  50  58 N13G21    30.22F                  
NEW YORK CITY  MOSUNNY   75  49  39 NE8       30.16S                  
$$
 
ANZALL-191800-
MARINE OBSERVATIONS
  
STATION/POSITION TIME  TEMP    WIND        PRES    VSBY  WAVE
                       AIR SEA DIR/SP/G                  HT/PER
                 (UTC) (F)     (DEG/KT/KT) (MB)    (MI)  (FT/S)
BOSTON BUOY      1640      66  360/ 16/ 17 1021.6R
BUZZARDS BAY     1600           30/ 21/ 24 1021.1R
NANTUCKET SOUND  1640   67 72  360/ 17/ 21 1019.9R
MASS BAY-STELLWA 1604   63      10/ 16/ 19 1020.6R  1 7/8  6/ 5
ISLE OF SHOALS   1600   63      30/ 13/ 14 1020.7F
S OF BLOCK IS    1626      71                N/A           4/ 9
$$

......................KEY.........................
  SKY/WX - SKY CONDITION/PRESENT WEATHER
  TMP    - TEMPERATURE IN FAHRENHEIT
  DWPT   - DEWPOINT IN FAHRENHEIT
  RH     - RELATIVE HUMIDITY IN PERCENT
  WIND   - DIRECTION AND SPEED IN MPH
  PRES   - MEAN SEA LEVEL PRESSURE IN INCHES OF HG
  WCI    - WIND CHILL INDEX
  VSB    - VISIBILITY IN MILES
  HX     - HEAT INDEX
  TC     - TEMPERATURE IN CELSIUS
  VRB    - VARIABLE WIND DIRECTION
  N/A    - NOT AVAILABLE
  
      

Other recent Regional Weather Roundups

Wed Sep 22, 2:04pm

Wed Sep 22, 1:04pm

Wed Sep 22, 12:05pm

Wed Sep 22, 11:04am

Wed Sep 22, 10:04am

Wed Sep 22, 9:04am

Wed Sep 22, 8:04am

Wed Sep 22, 7:04am

Wed Sep 22, 6:04am

Wed Sep 22, 5:04am

Wed Sep 22, 4:04am

Wed Sep 22, 3:04am

Wed Sep 22, 2:04am

Wed Sep 22, 1:04am

Wed Sep 22, 12:04am

Tue Sep 21, 11:04pm

Tue Sep 21, 10:04pm

Tue Sep 21, 9:04pm

Tue Sep 21, 8:04pm

Tue Sep 21, 7:04pm

Tue Sep 21, 6:04pm

Tue Sep 21, 5:04pm

Tue Sep 21, 4:04pm

Tue Sep 21, 3:04pm

Tue Sep 21, 2:04pm

Tue Sep 21, 1:04pm

Tue Sep 21, 12:04pm

Tue Sep 21, 11:04am

Tue Sep 21, 10:04am

Tue Sep 21, 9:04am

Tue Sep 21, 8:04am

Tue Sep 21, 7:04am

Tue Sep 21, 6:04am

Tue Sep 21, 5:04am

Tue Sep 21, 4:04am

Tue Sep 21, 3:04am

Tue Sep 21, 2:04am

Tue Sep 21, 1:04am

Tue Sep 21, 12:04am

Mon Sep 20, 11:04pm

Mon Sep 20, 10:04pm

Mon Sep 20, 9:04pm

Mon Sep 20, 8:04pm

Mon Sep 20, 7:04pm

Mon Sep 20, 6:04pm

Mon Sep 20, 5:04pm

Mon Sep 20, 4:04pm

Mon Sep 20, 3:04pm

Mon Sep 20, 2:04pm

Mon Sep 20, 1:04pm

Mon Sep 20, 12:04pm

Mon Sep 20, 11:04am

Mon Sep 20, 10:04am

Mon Sep 20, 9:04am

Mon Sep 20, 7:04am

Mon Sep 20, 6:04am

Mon Sep 20, 5:04am

Mon Sep 20, 4:04am

Mon Sep 20, 3:04am

Mon Sep 20, 2:04am

Mon Sep 20, 1:04am

Mon Sep 20, 12:04am

Sun Sep 19, 11:04pm

Sun Sep 19, 10:04pm

Sun Sep 19, 9:04pm

Sun Sep 19, 8:04pm

Sun Sep 19, 7:04pm

Sun Sep 19, 6:04pm

Sun Sep 19, 5:04pm

Sun Sep 19, 4:04pm

Sun Sep 19, 3:04pm

Sun Sep 19, 2:05pm

Sun Sep 19, 12:04pm

Sun Sep 19, 11:04am

Sun Sep 19, 10:05am

Sun Sep 19, 9:04am

Sun Sep 19, 8:04am

Sun Sep 19, 7:04am

Sun Sep 19, 6:04am

Sun Sep 19, 5:04am

Sun Sep 19, 4:04am

Sun Sep 19, 3:04am

Sun Sep 19, 2:04am

Sun Sep 19, 1:04am

Sun Sep 19, 12:04am

Sat Sep 18, 11:05pm

Sat Sep 18, 10:04pm

Sat Sep 18, 9:04pm

Sat Sep 18, 8:04pm

Sat Sep 18, 7:04pm

Sat Sep 18, 6:04pm

Sat Sep 18, 5:04pm

Sat Sep 18, 4:04pm

Sat Sep 18, 3:04pm

Sat Sep 18, 2:04pm

Sat Sep 18, 1:04pm

Sat Sep 18, 12:04pm

Sat Sep 18, 11:04am

Sat Sep 18, 10:04am

Sat Sep 18, 9:04am

Sat Sep 18, 8:04am

Sat Sep 18, 7:04am

Sat Sep 18, 6:04am

Sat Sep 18, 5:04am

Sat Sep 18, 4:04am

Sat Sep 18, 3:04am

Sat Sep 18, 2:04am

Sat Sep 18, 1:04am

Sat Sep 18, 12:04am

Fri Sep 17, 11:04pm

Fri Sep 17, 10:04pm

Fri Sep 17, 9:04pm

Fri Sep 17, 8:04pm

Fri Sep 17, 7:04pm

Fri Sep 17, 6:04pm

Fri Sep 17, 5:04pm

Fri Sep 17, 4:04pm

Fri Sep 17, 3:04pm

Fri Sep 17, 2:04pm

Fri Sep 17, 1:04pm

Fri Sep 17, 12:05pm

Fri Sep 17, 11:04am

Fri Sep 17, 10:04am

Fri Sep 17, 9:04am

Fri Sep 17, 8:04am

Fri Sep 17, 7:04am

Fri Sep 17, 6:04am

Fri Sep 17, 5:04am

Fri Sep 17, 4:04am

Fri Sep 17, 3:04am

Fri Sep 17, 2:04am

Fri Sep 17, 1:04am

Fri Sep 17, 12:04am

Thu Sep 16, 11:04pm

Thu Sep 16, 10:04pm

Thu Sep 16, 9:04pm

Thu Sep 16, 8:04pm

Thu Sep 16, 7:04pm

Thu Sep 16, 6:04pm

Thu Sep 16, 5:04pm

Thu Sep 16, 4:04pm

Thu Sep 16, 3:04pm

Thu Sep 16, 2:04pm

Thu Sep 16, 1:05pm

Thu Sep 16, 12:04pm

Thu Sep 16, 11:05am

Thu Sep 16, 10:05am

Thu Sep 16, 9:04am

Thu Sep 16, 8:04am

Thu Sep 16, 7:04am

Thu Sep 16, 6:04am

Thu Sep 16, 5:04am

Thu Sep 16, 4:04am

Thu Sep 16, 3:04am

Thu Sep 16, 2:04am

Thu Sep 16, 1:04am

Thu Sep 16, 12:04am

Wed Sep 15, 11:04pm

Wed Sep 15, 10:04pm

Wed Sep 15, 9:04pm

Wed Sep 15, 8:04pm

Wed Sep 15, 7:04pm

Wed Sep 15, 6:04pm

Wed Sep 15, 5:05pm

Wed Sep 15, 4:04pm

Wed Sep 15, 3:04pm

Meta data:

ID: 563297d8-f658-4ebb-927b-9f90e6ed40d5
Link: https://api.weather.gov/products/563297d8-f658-4ebb-927b-9f90e6ed40d5